TimeMDT,TemperatureF,Dew PointF,Humidity,Sea Level PressureIn,VisibilityMPH,Wind Direction,Wind SpeedMPH,Gust SpeedMPH,PrecipitationIn,Events,Conditions,WindDirDegrees,DateUTC
12:16 AM,71.6,51.8,50,30.20,10.0,South,15.0,-,N/A,,Clear,180,2013-07-18 06:16:00
12:35 AM,71.6,51.8,50,30.20,10.0,South,13.8,-,N/A,,Clear,180,2013-07-18 06:35:00
12:56 AM,69.8,51.8,53,30.19,10.0,South,13.8,18.4,N/A,,Clear,180,2013-07-18 06:56:00
1:15 AM,69.8,51.8,53,30.19,10.0,South,16.1,20.7,N/A,,Clear,180,2013-07-18 07:15:00
1:36 AM,69.8,51.8,53,30.18,10.0,South,18.4,24.2,N/A,,Clear,180,2013-07-18 07:36:00
1:56 AM,69.8,51.8,53,30.18,10.0,South,12.7,20.7,N/A,,Clear,180,2013-07-18 07:56:00
2:16 AM,68.0,51.8,56,30.18,10.0,South,10.4,16.1,N/A,,Clear,180,2013-07-18 08:16:00
2:36 AM,68.0,51.8,56,30.16,10.0,South,11.5,16.1,N/A,,Clear,180,2013-07-18 08:36:00
2:56 AM,68.0,51.8,56,30.16,10.0,South,10.4,-,N/A,,Clear,190,2013-07-18 08:56:00
3:16 AM,66.2,51.8,60,30.16,10.0,South,8.1,-,N/A,,Clear,180,2013-07-18 09:16:00
3:36 AM,64.4,51.8,64,30.16,10.0,SSW,9.2,-,N/A,,Clear,200,2013-07-18 09:36:00
3:56 AM,66.2,51.8,60,30.16,10.0,SSW,9.2,-,N/A,,Clear,210,2013-07-18 09:56:00
4:16 AM,64.4,51.8,64,30.16,10.0,South,9.2,-,N/A,,Clear,190,2013-07-18 10:16:00
4:36 AM,64.4,51.8,64,30.16,10.0,SSW,10.4,-,N/A,,Clear,210,2013-07-18 10:36:00
4:56 AM,68.0,51.8,56,30.16,10.0,SW,8.1,-,N/A,,Clear,220,2013-07-18 10:56:00
5:16 AM,64.4,51.8,64,30.17,10.0,WSW,6.9,-,N/A,,Clear,240,2013-07-18 11:16:00
5:36 AM,64.4,51.8,64,30.17,10.0,SW,9.2,-,N/A,,Clear,230,2013-07-18 11:36:00
5:55 AM,64.4,51.8,64,30.17,10.0,WSW,9.2,-,N/A,,Clear,240,2013-07-18 11:55:00
6:16 AM,64.4,51.8,64,30.18,10.0,WSW,9.2,-,N/A,,Clear,250,2013-07-18 12:16:00
6:36 AM,64.4,51.8,64,30.18,10.0,WSW,8.1,-,N/A,,Clear,250,2013-07-18 12:36:00
6:56 AM,68.0,53.6,60,30.19,10.0,West,9.2,-,N/A,,Clear,270,2013-07-18 12:56:00
7:16 AM,69.8,53.6,56,30.19,10.0,West,10.4,-,N/A,,Clear,270,2013-07-18 13:16:00
7:35 AM,71.6,53.6,53,30.20,10.0,West,10.4,-,N/A,,Clear,270,2013-07-18 13:35:00
7:55 AM,71.6,53.6,53,30.20,10.0,West,8.1,-,N/A,,Clear,260,2013-07-18 13:55:00
7:58 AM,73.4,55.4,53,30.20,40.0,West,8.1,-,N/A,,Clear,260,2013-07-18 13:58:00
8:15 AM,75.2,53.6,47,30.20,10.0,West,6.9,-,N/A,,Clear,270,2013-07-18 14:15:00
8:36 AM,77.0,53.6,44,30.20,10.0,West,6.9,-,N/A,,Clear,270,2013-07-18 14:36:00
8:50 AM,80.6,53.6,39,30.21,40.0,WNW,5.8,-,N/A,,Partly Cloudy,290,2013-07-18 14:50:00
8:56 AM,78.8,51.8,39,30.21,10.0,WNW,4.6,-,N/A,,Clear,300,2013-07-18 14:56:00
9:16 AM,80.6,51.8,37,30.21,10.0,NNW,6.9,-,N/A,,Clear,330,2013-07-18 15:16:00
9:36 AM,80.6,50.0,34,30.21,10.0,NNW,6.9,-,N/A,,Clear,340,2013-07-18 15:36:00
9:48 AM,82.4,50.0,32,30.21,40.0,NNW,8.1,-,N/A,,Partly Cloudy,330,2013-07-18 15:48:00
9:56 AM,82.4,50.0,32,30.21,10.0,North,9.2,-,N/A,,Clear,350,2013-07-18 15:56:00
10:16 AM,82.4,50.0,32,30.21,10.0,NNW,12.7,20.7,N/A,,Clear,340,2013-07-18 16:16:00
10:36 AM,84.2,50.0,30,30.20,10.0,NNW,12.7,21.9,N/A,,Clear,340,2013-07-18 16:36:00
10:56 AM,86.0,50.0,29,30.20,10.0,NNW,12.7,18.4,N/A,,Clear,340,2013-07-18 16:56:00
10:57 AM,86.0,50.0,29,30.20,40.0,North,11.5,19.6,N/A,,Partly Cloudy,360,2013-07-18 16:57:00
11:15 AM,86.0,50.0,29,30.20,10.0,North,10.4,18.4,N/A,,Clear,350,2013-07-18 17:15:00
11:36 AM,86.0,50.0,29,30.19,10.0,North,6.9,11.5,N/A,,Clear,360,2013-07-18 17:36:00
11:50 AM,87.8,50.0,27,30.19,40.0,North,11.5,17.3,N/A,,Partly Cloudy,10,2013-07-18 17:50:00
11:56 AM,87.8,50.0,27,30.19,10.0,North,11.5,17.3,N/A,,Clear,350,2013-07-18 17:56:00
12:16 PM,87.8,50.0,27,30.18,10.0,NNW,15.0,19.6,N/A,,Clear,340,2013-07-18 18:16:00
12:35 PM,87.8,50.0,27,30.18,10.0,North,9.2,23.0,N/A,,Clear,360,2013-07-18 18:35:00
12:56 PM,89.6,50.0,26,30.17,10.0,North,10.4,16.1,N/A,,Clear,360,2013-07-18 18:56:00
1:15 PM,89.6,48.2,24,30.17,10.0,NE,9.2,16.1,N/A,,Clear,40,2013-07-18 19:15:00
1:35 PM,91.4,46.4,21,30.16,10.0,NNE,8.1,17.3,N/A,,Clear,30,2013-07-18 19:35:00
1:48 PM,93.2,48.2,21,30.15,40.0,ENE,9.2,-,N/A,,Scattered Clouds,60,2013-07-18 19:48:00
1:56 PM,91.4,48.2,23,30.15,10.0,NNE,8.1,-,N/A,,Clear,30,2013-07-18 19:56:00
2:16 PM,91.4,48.2,23,30.15,10.0,ENE,10.4,19.6,N/A,,Clear,70,2013-07-18 20:16:00
2:36 PM,93.2,48.2,21,30.15,10.0,NNE,15.0,19.6,N/A,,Clear,20,2013-07-18 20:36:00
2:56 PM,93.2,46.4,20,30.15,10.0,NNE,13.8,20.7,N/A,,Clear,30,2013-07-18 20:56:00
3:16 PM,93.2,46.4,20,30.14,10.0,NNE,8.1,21.9,N/A,,Clear,30,2013-07-18 21:16:00
3:36 PM,93.2,46.4,20,30.14,10.0,NNE,9.2,19.6,N/A,,Clear,20,2013-07-18 21:36:00
3:56 PM,95.0,46.4,19,30.14,10.0,NE,16.1,20.7,N/A,,Scattered Clouds,40,2013-07-18 21:56:00
4:16 PM,95.0,46.4,19,30.14,10.0,NNE,11.5,19.6,N/A,,Scattered Clouds,30,2013-07-18 22:16:00
4:36 PM,91.4,46.4,21,30.14,10.0,NNE,13.8,18.4,N/A,Thunderstorm,Scattered Clouds,30,2013-07-18 22:36:00
4:56 PM,86.0,50.0,29,30.14,10.0,NW,29.9,38.0,N/A,,Mostly Cloudy,310,2013-07-18 22:56:00
4:57 PM,86.0,50.0,29,30.14,40.0,NW,31.1,38.0,N/A,,Scattered Clouds,310,2013-07-18 22:57:00
5:16 PM,86.0,50.0,29,30.14,10.0,NW,33.4,40.3,N/A,,Scattered Clouds,320,2013-07-18 23:16:00
5:36 PM,84.2,50.0,30,30.15,10.0,NW,27.6,35.7,N/A,,Clear,310,2013-07-18 23:36:00
5:47 PM,82.4,50.0,32,30.15,40.0,NW,25.3,35.7,N/A,,Scattered Clouds,310,2013-07-18 23:47:00
5:56 PM,80.6,50.0,34,30.15,10.0,NW,23.0,33.4,N/A,,Clear,310,2013-07-18 23:56:00
6:16 PM,80.6,51.8,37,30.15,10.0,NW,21.9,27.6,N/A,,Clear,320,2013-07-19 00:16:00
6:36 PM,78.8,51.8,39,30.15,10.0,NW,16.1,26.5,N/A,,Clear,310,2013-07-19 00:36:00
6:47 PM,77.0,53.6,44,30.15,40.0,NW,19.6,24.2,N/A,,Scattered Clouds,310,2013-07-19 00:47:00
6:56 PM,77.0,51.8,41,30.16,10.0,NW,18.4,23.0,N/A,,Clear,320,2013-07-19 00:56:00
7:16 PM,77.0,51.8,41,30.15,10.0,NW,21.9,26.5,N/A,,Clear,320,2013-07-19 01:16:00
7:36 PM,75.2,53.6,47,30.15,10.0,NW,20.7,28.8,N/A,,Clear,310,2013-07-19 01:36:00
7:56 PM,73.4,53.6,50,30.16,10.0,NW,19.6,28.8,N/A,,Clear,310,2013-07-19 01:56:00
8:16 PM,71.6,55.4,57,30.18,10.0,NW,18.4,25.3,N/A,,Clear,310,2013-07-19 02:16:00
8:36 PM,71.6,55.4,57,30.18,10.0,NW,13.8,20.7,N/A,,Clear,310,2013-07-19 02:36:00
8:56 PM,69.8,55.4,60,30.19,10.0,NW,10.4,-,N/A,,Scattered Clouds,320,2013-07-19 02:56:00
9:16 PM,69.8,55.4,60,30.21,10.0,NW,9.2,-,N/A,,Mostly Cloudy,320,2013-07-19 03:16:00
9:36 PM,69.8,55.4,60,30.21,10.0,NW,13.8,18.4,N/A,,Scattered Clouds,310,2013-07-19 03:36:00
9:56 PM,69.8,57.2,64,30.22,10.0,WNW,13.8,19.6,N/A,,Clear,300,2013-07-19 03:56:00
10:16 PM,69.8,57.2,64,30.22,10.0,WNW,12.7,21.9,N/A,,Scattered Clouds,290,2013-07-19 04:16:00
10:36 PM,68.0,59.0,73,30.22,10.0,WNW,12.7,-,N/A,,Scattered Clouds,300,2013-07-19 04:36:00
10:56 PM,68.0,59.0,73,30.23,10.0,West,12.7,-,N/A,,Mostly Cloudy,280,2013-07-19 04:56:00
11:15 PM,68.0,59.0,73,30.24,10.0,WNW,17.3,20.7,N/A,,Overcast,300,2013-07-19 05:15:00
11:35 PM,66.2,59.0,78,30.24,10.0,WNW,10.4,-,N/A,,Scattered Clouds,300,2013-07-19 05:35:00
11:55 PM,66.2,59.0,78,30.24,10.0,NW,5.8,-,N/A,,Clear,310,2013-07-19 05:55:00